Location: 相模原市立博物館
(35.5593°N, 139.3931°E)
Time: 09:45:34
(UTC+09:00)

ISS - Visible Passes

Search period start: 21 May 2024 00:00
Search period end: 31 May 2024 00:00
Orbit: 409 x 414 km, 51.6° (Epoch: 20 May)

Date Brightness Start Highest point End Pass type
(mag) Time Alt. Az. Time Alt. Az. Time Alt. Az.
21 May -0.7 21:55:11 10° NNW 21:56:08 14° N 21:56:08 14° N visible
22 May -0.9 21:05:56 10° N 21:07:15 12° NNE 21:07:51 11° NE visible
23 May -1.0 21:51:10 10° NNW 21:52:19 19° NNW 21:52:19 19° NNW visible
24 May -1.8 21:01:24 10° NNW 21:03:59 22° NNE 21:03:59 22° NNE visible
25 May -1.3 20:11:45 10° N 20:13:45 15° NNE 20:15:39 10° ENE visible
25 May -1.1 21:47:23 10° NW 21:48:26 19° NW 21:48:26 19° NW visible
26 May -1.0 19:22:42 10° NNE 19:23:17 10° NNE 19:23:52 10° NNE visible
26 May -3.1 20:57:14 10° NW 21:00:05 51° N 21:00:05 51° N visible
27 May -2.4 20:07:12 10° NNW 20:10:11 30° NE 20:11:43 20° E visible
27 May -0.8 21:44:03 10° WNW 21:44:30 12° W 21:44:30 12° W visible
28 May -1.7 19:17:17 10° NNW 19:19:44 19° NNE 19:22:11 10° ENE visible
28 May -2.9 20:53:19 10° WNW 20:56:09 42° WSW 20:56:09 42° WSW visible
29 May -3.9 20:02:53 10° NW 20:06:12 87° NE 20:07:48 28° SE visible
30 May -1.4 20:50:09 10° W 20:52:05 15° SW 20:52:15 15° SW visible
